Location: Krasnoyarskiy Pitomnik
(51.1333°N, 71.6167°E)
Time: 08:16:33
(UTC+00:00)

Cosmos 1140 Rocket - Pass Details

Date: 22 October 2021
Orbit: 743 x 768 km, 74.1° (Epoch: 06 December)

Event Time Altitude Azimuth Distance (km) Brightness Sun altitude
Rises 14:31:49 0° 336° (NNW) 3,216 7.2 -23.4°
Reaches altitude 10° 14:34:11 10° 338° (NNW) 2,291 6.4 -23.8°
Maximum altitude 14:39:23 73° 63° (ENE) 797 3.3 -24.6°
Enters shadow 14:39:36 72° 86° (E) 802 3.3 -24.6°
